Time,TemperatureF,DewpointF,PressureIn,WindDirection,WindDirectionDegrees,WindSpeedMPH,WindSpeedGustMPH,Humidity,HourlyPrecipIn,Conditions,Clouds,dailyrainin,SolarRadiationWatts/m^2,SoftwareType,DateUTC
2013-06-15 00:04:00,49.9,44.0,29.97,NE,52,0.0,0.0,80,0.00,,,0.00,0,weatherlink.com 1.10,2013-06-15 04:04:00,
2013-06-15 00:19:00,49.6,44.0,29.96,NE,52,0.0,0.0,81,0.00,,,0.00,0,weatherlink.com 1.10,2013-06-15 04:19:00,
2013-06-15 00:34:00,49.2,44.0,29.97,NE,52,0.0,0.0,82,0.00,,,0.00,0,weatherlink.com 1.10,2013-06-15 04:34:00,
2013-06-15 00:49:00,49.4,44.0,29.97,NE,52,0.0,0.0,83,0.00,,,0.00,0,weatherlink.com 1.10,2013-06-15 04:49:00,
2013-06-15 01:04:00,49.4,44.0,29.96,NE,52,0.0,0.0,82,0.00,,,0.00,0,weatherlink.com 1.10,2013-06-15 05:04:00,
2013-06-15 01:19:00,49.5,45.0,29.96,NE,52,1.0,1.0,83,0.00,,,0.00,0,weatherlink.com 1.10,2013-06-15 05:19:00,
2013-06-15 01:34:00,49.3,44.0,29.94,NE,52,0.0,0.0,83,0.00,,,0.00,0,weatherlink.com 1.10,2013-06-15 05:34:00,
2013-06-15 01:49:00,49.2,44.0,29.93,NE,52,0.0,0.0,83,0.00,,,0.00,0,weatherlink.com 1.10,2013-06-15 05:49:00,
2013-06-15 02:04:00,49.6,44.0,29.93,NE,52,0.0,0.0,82,0.00,,,0.00,0,weatherlink.com 1.10,2013-06-15 06:04:00,
2013-06-15 02:19:00,50.6,45.0,29.93,South,176,2.0,4.0,80,0.00,,,0.00,0,weatherlink.com 1.10,2013-06-15 06:19:00,
2013-06-15 02:34:00,53.9,45.0,29.93,SSW,194,1.0,4.0,72,0.00,,,0.00,0,weatherlink.com 1.10,2013-06-15 06:34:00,
2013-06-15 02:49:00,55.9,45.0,29.93,SSE,165,0.0,5.0,67,0.00,,,0.00,0,weatherlink.com 1.10,2013-06-15 06:49:00,
2013-06-15 03:04:00,56.8,45.0,29.93,South,182,3.0,7.0,65,0.00,,,0.00,0,weatherlink.com 1.10,2013-06-15 07:04:00,
2013-06-15 03:19:00,57.2,46.0,29.93,SSE,167,3.0,6.0,66,0.00,,,0.00,0,weatherlink.com 1.10,2013-06-15 07:19:00,
2013-06-15 03:34:00,57.9,46.0,29.93,SSE,148,2.0,9.0,65,0.00,,,0.00,0,weatherlink.com 1.10,2013-06-15 07:34:00,
2013-06-15 03:49:00,58.3,47.0,29.93,SSW,194,3.0,9.0,66,0.00,,,0.00,0,weatherlink.com 1.10,2013-06-15 07:49:00,
2013-06-15 04:04:00,58.2,46.0,29.92,South,188,2.0,7.0,65,0.00,,,0.00,0,weatherlink.com 1.10,2013-06-15 08:04:00,
2013-06-15 04:19:00,58.0,47.0,29.92,South,178,4.0,5.0,67,0.00,,,0.00,0,weatherlink.com 1.10,2013-06-15 08:19:00,
2013-06-15 04:34:00,57.7,48.0,29.91,South,189,0.0,4.0,69,0.00,,,0.00,0,weatherlink.com 1.10,2013-06-15 08:34:00,
2013-06-15 04:49:00,57.1,47.0,29.91,South,190,1.0,3.0,70,0.00,,,0.00,0,weatherlink.com 1.10,2013-06-15 08:49:00,
2013-06-15 05:04:00,56.7,47.0,29.91,SSW,192,2.0,5.0,71,0.00,,,0.00,0,weatherlink.com 1.10,2013-06-15 09:04:00,
2013-06-15 05:19:00,56.7,47.0,29.91,South,189,2.0,4.0,71,0.00,,,0.00,0,weatherlink.com 1.10,2013-06-15 09:19:00,
2013-06-15 05:34:00,56.9,48.0,29.91,SSE,161,3.0,7.0,72,0.00,,,0.00,0,weatherlink.com 1.10,2013-06-15 09:34:00,
2013-06-15 05:49:00,57.5,48.0,29.92,SSE,153,2.0,6.0,71,0.00,,,0.00,0,weatherlink.com 1.10,2013-06-15 09:49:00,
2013-06-15 06:04:00,58.1,49.0,29.92,South,173,0.0,5.0,71,0.00,,,0.00,5,weatherlink.com 1.10,2013-06-15 10:04:00,
2013-06-15 06:19:00,58.4,49.0,29.92,South,174,1.0,8.0,71,0.00,,,0.00,9,weatherlink.com 1.10,2013-06-15 10:19:00,
2013-06-15 06:34:00,58.7,49.0,29.91,South,186,0.0,5.0,71,0.00,,,0.00,11,weatherlink.com 1.10,2013-06-15 10:34:00,
2013-06-15 06:49:00,58.9,49.0,29.92,ESE,123,1.0,5.0,71,0.00,,,0.00,14,weatherlink.com 1.10,2013-06-15 10:49:00,
2013-06-15 07:04:00,59.1,50.0,29.92,SSE,155,0.0,4.0,71,0.00,,,0.00,21,weatherlink.com 1.10,2013-06-15 11:04:00,
2013-06-15 07:19:00,59.2,50.0,29.92,South,184,0.0,5.0,72,0.00,,,0.00,28,weatherlink.com 1.10,2013-06-15 11:19:00,
2013-06-15 07:35:00,59.4,51.0,29.92,SSE,159,1.0,4.0,73,0.00,,,0.00,42,weatherlink.com 1.10,2013-06-15 11:35:00,
2013-06-15 07:50:00,59.5,51.0,29.91,South,178,1.0,5.0,73,0.00,,,0.00,47,weatherlink.com 1.10,2013-06-15 11:50:00,
2013-06-15 08:05:00,59.7,51.0,29.91,SSE,167,2.0,4.0,74,0.00,,,0.00,53,weatherlink.com 1.10,2013-06-15 12:05:00,
2013-06-15 08:20:00,59.9,52.0,29.91,South,190,1.0,4.0,76,0.00,,,0.00,25,weatherlink.com 1.10,2013-06-15 12:20:00,
2013-06-15 08:35:00,59.5,52.0,29.91,SSW,201,0.0,4.0,76,0.00,,,0.00,12,weatherlink.com 1.10,2013-06-15 12:35:00,
2013-06-15 08:50:00,58.1,52.0,29.89,South,180,1.0,5.0,81,0.01,,,0.01,28,weatherlink.com 1.10,2013-06-15 12:50:00,
2013-06-15 09:05:00,57.2,53.0,29.90,East,83,0.0,3.0,87,0.01,,,0.01,69,weatherlink.com 1.10,2013-06-15 13:05:00,
2013-06-15 09:20:00,57.3,54.0,29.89,SSE,164,1.0,5.0,87,0.01,,,0.01,56,weatherlink.com 1.10,2013-06-15 13:20:00,
2013-06-15 09:35:00,57.7,54.0,29.87,South,183,0.0,5.0,87,0.01,,,0.01,62,weatherlink.com 1.10,2013-06-15 13:35:00,
2013-06-15 09:50:00,58.2,55.0,29.88,SSW,213,0.0,2.0,88,0.00,,,0.01,118,weatherlink.com 1.10,2013-06-15 13:50:00,
2013-06-15 10:05:00,58.9,56.0,29.89,SSW,213,2.0,3.0,89,0.00,,,0.01,146,weatherlink.com 1.10,2013-06-15 14:05:00,
2013-06-15 10:20:00,60.5,57.0,29.90,NE,39,0.0,4.0,89,0.00,,,0.01,186,weatherlink.com 1.10,2013-06-15 14:20:00,
2013-06-15 10:35:00,62.4,58.0,29.90,NE,40,0.0,3.0,86,0.00,,,0.01,193,weatherlink.com 1.10,2013-06-15 14:35:00,
2013-06-15 10:50:00,62.6,58.0,29.90,NE,40,0.0,4.0,84,0.00,,,0.01,185,weatherlink.com 1.10,2013-06-15 14:50:00,
2013-06-15 11:05:00,62.6,57.0,29.90,NE,40,0.0,3.0,83,0.00,,,0.01,381,weatherlink.com 1.10,2013-06-15 15:05:00,
2013-06-15 11:20:00,64.1,59.0,29.89,NE,40,0.0,3.0,82,0.00,,,0.01,283,weatherlink.com 1.10,2013-06-15 15:20:00,
2013-06-15 11:35:00,64.4,58.0,29.88,South,182,1.0,3.0,81,0.00,,,0.01,204,weatherlink.com 1.10,2013-06-15 15:35:00,
2013-06-15 11:50:00,64.1,58.0,29.88,SSW,211,0.0,3.0,80,0.00,,,0.01,111,weatherlink.com 1.10,2013-06-15 15:50:00,
2013-06-15 12:05:00,64.4,58.0,29.88,East,98,1.0,3.0,80,0.00,,,0.01,357,weatherlink.com 1.10,2013-06-15 16:05:00,
2013-06-15 12:20:00,65.5,59.0,29.87,SSE,159,0.0,4.0,80,0.00,,,0.01,327,weatherlink.com 1.10,2013-06-15 16:20:00,
2013-06-15 12:35:00,66.8,60.0,29.87,South,186,1.0,4.0,78,0.00,,,0.01,478,weatherlink.com 1.10,2013-06-15 16:35:00,
2013-06-15 12:50:00,67.0,60.0,29.86,South,191,2.0,4.0,78,0.00,,,0.01,248,weatherlink.com 1.10,2013-06-15 16:50:00,
2013-06-15 13:05:00,67.4,60.0,29.86,SSE,157,1.0,2.0,78,0.00,,,0.01,251,weatherlink.com 1.10,2013-06-15 17:05:00,
2013-06-15 13:20:00,69.2,62.0,29.84,ESE,106,2.0,3.0,77,0.00,,,0.01,394,weatherlink.com 1.10,2013-06-15 17:20:00,
2013-06-15 13:35:00,71.5,63.0,29.84,South,181,5.0,6.0,74,0.00,,,0.01,515,weatherlink.com 1.10,2013-06-15 17:35:00,
2013-06-15 13:51:00,73.7,62.0,29.84,SSE,163,6.0,10.0,68,0.00,,,0.01,1090,weatherlink.com 1.10,2013-06-15 17:51:00,
2013-06-15 14:06:00,72.3,63.0,29.83,SSE,168,4.0,8.0,72,0.00,,,0.01,494,weatherlink.com 1.10,2013-06-15 18:06:00,
2013-06-15 14:21:00,72.9,63.0,29.83,SSE,155,1.0,10.0,71,0.00,,,0.01,805,weatherlink.com 1.10,2013-06-15 18:21:00,
2013-06-15 14:36:00,74.1,64.0,29.82,SW,236,1.0,8.0,71,0.00,,,0.01,840,weatherlink.com 1.10,2013-06-15 18:36:00,
2013-06-15 14:51:00,72.9,63.0,29.82,South,175,3.0,12.0,71,0.00,,,0.01,621,weatherlink.com 1.10,2013-06-15 18:51:00,
2013-06-15 15:06:00,74.5,64.0,29.81,South,188,3.0,11.0,69,0.00,,,0.01,891,weatherlink.com 1.10,2013-06-15 19:06:00,
2013-06-15 15:21:00,75.3,64.0,29.81,SSE,160,4.0,9.0,68,0.00,,,0.01,967,weatherlink.com 1.10,2013-06-15 19:21:00,
2013-06-15 15:36:00,75.9,64.0,29.80,West,265,6.0,8.0,66,0.00,,,0.01,364,weatherlink.com 1.10,2013-06-15 19:36:00,
2013-06-15 15:51:00,75.4,65.0,29.81,South,180,2.0,10.0,70,0.00,,,0.01,313,weatherlink.com 1.10,2013-06-15 19:51:00,
2013-06-15 16:06:00,75.7,65.0,29.80,SSE,165,2.0,7.0,69,0.00,,,0.01,357,weatherlink.com 1.10,2013-06-15 20:06:00,
2013-06-15 16:21:00,75.7,66.0,29.79,SE,143,0.0,7.0,71,0.00,,,0.01,267,weatherlink.com 1.10,2013-06-15 20:21:00,
2013-06-15 16:36:00,75.6,65.0,29.79,SSW,212,4.0,7.0,70,0.00,,,0.01,118,weatherlink.com 1.10,2013-06-15 20:36:00,
2013-06-15 16:51:00,74.7,65.0,29.79,WSW,237,0.0,7.0,71,0.00,,,0.01,49,weatherlink.com 1.10,2013-06-15 20:51:00,
2013-06-15 17:06:00,73.7,65.0,29.78,SSE,166,1.0,5.0,73,0.00,,,0.01,51,weatherlink.com 1.10,2013-06-15 21:06:00,
2013-06-15 17:21:00,73.0,65.0,29.79,SSE,156,2.0,6.0,75,0.00,,,0.01,63,weatherlink.com 1.10,2013-06-15 21:21:00,
2013-06-15 17:36:00,72.6,65.0,29.78,South,169,2.0,6.0,76,0.00,,,0.01,69,weatherlink.com 1.10,2013-06-15 21:36:00,
2013-06-15 17:51:00,72.4,65.0,29.78,South,178,0.0,6.0,77,0.00,,,0.01,90,weatherlink.com 1.10,2013-06-15 21:51:00,
2013-06-15 18:06:00,72.0,65.0,29.78,South,179,1.0,6.0,78,0.00,,,0.01,56,weatherlink.com 1.10,2013-06-15 22:06:00,
2013-06-15 18:21:00,71.8,65.0,29.77,SSE,154,0.0,3.0,78,0.00,,,0.01,51,weatherlink.com 1.10,2013-06-15 22:21:00,
2013-06-15 18:36:00,71.5,65.0,29.77,SSE,154,0.0,1.0,79,0.00,,,0.01,46,weatherlink.com 1.10,2013-06-15 22:36:00,
2013-06-15 18:51:00,71.1,65.0,29.78,SSE,154,0.0,1.0,80,0.00,,,0.01,25,weatherlink.com 1.10,2013-06-15 22:51:00,
2013-06-15 19:06:00,70.8,65.0,29.78,SSE,154,0.0,1.0,82,0.00,,,0.01,12,weatherlink.com 1.10,2013-06-15 23:06:00,
2013-06-15 19:21:00,70.6,65.0,29.77,SSE,154,1.0,1.0,82,0.00,,,0.01,30,weatherlink.com 1.10,2013-06-15 23:21:00,
2013-06-15 19:36:00,68.8,62.0,29.78,NE,51,0.0,5.0,79,0.00,,,0.01,14,weatherlink.com 1.10,2013-06-15 23:36:00,
2013-06-15 19:51:00,67.5,61.0,29.78,NE,51,0.0,3.0,80,0.00,,,0.01,11,weatherlink.com 1.10,2013-06-15 23:51:00,
2013-06-15 20:06:00,66.6,61.0,29.78,NE,40,1.0,3.0,82,0.00,,,0.01,12,weatherlink.com 1.10,2013-06-16 00:06:00,
2013-06-15 20:21:00,65.7,60.0,29.77,NE,40,0.0,2.0,82,0.00,,,0.01,9,weatherlink.com 1.10,2013-06-16 00:21:00,
2013-06-15 20:36:00,63.3,57.0,29.77,NE,40,0.0,3.0,80,0.00,,,0.01,23,weatherlink.com 1.10,2013-06-16 00:36:00,
2013-06-15 20:51:00,60.7,55.0,29.77,East,80,0.0,4.0,82,0.00,,,0.01,19,weatherlink.com 1.10,2013-06-16 00:51:00,
2013-06-15 21:06:00,59.5,55.0,29.78,East,80,1.0,3.0,84,0.00,,,0.01,7,weatherlink.com 1.10,2013-06-16 01:06:00,
2013-06-15 21:21:00,57.7,54.0,29.78,NE,53,0.0,3.0,86,0.00,,,0.01,0,weatherlink.com 1.10,2013-06-16 01:21:00,
2013-06-15 21:36:00,56.4,52.0,29.76,NE,52,0.0,4.0,86,0.00,,,0.01,0,weatherlink.com 1.10,2013-06-16 01:36:00,
2013-06-15 21:51:00,55.1,52.0,29.76,NE,52,0.0,1.0,89,0.00,,,0.01,0,weatherlink.com 1.10,2013-06-16 01:51:00,
2013-06-15 22:06:00,54.9,52.0,29.74,South,177,0.0,5.0,90,0.00,,,0.01,0,weatherlink.com 1.10,2013-06-16 02:06:00,
2013-06-15 22:21:00,55.3,53.0,29.74,South,177,0.0,1.0,91,0.00,,,0.01,0,weatherlink.com 1.10,2013-06-16 02:21:00,
2013-06-15 22:36:00,55.9,53.0,29.76,South,177,0.0,0.0,91,0.00,,,0.01,0,weatherlink.com 1.10,2013-06-16 02:36:00,
2013-06-15 22:51:00,56.2,54.0,29.74,South,177,0.0,0.0,91,0.00,,,0.01,0,weatherlink.com 1.10,2013-06-16 02:51:00,
2013-06-15 23:06:00,56.3,54.0,29.74,South,177,0.0,1.0,91,0.00,,,0.01,0,weatherlink.com 1.10,2013-06-16 03:06:00,
2013-06-15 23:21:00,56.4,54.0,29.73,South,177,0.0,0.0,91,0.00,,,0.01,0,weatherlink.com 1.10,2013-06-16 03:21:00,
2013-06-15 23:36:00,57.1,55.0,29.72,South,177,0.0,0.0,92,0.00,,,0.01,0,weatherlink.com 1.10,2013-06-16 03:36:00,
2013-06-15 23:51:00,58.0,56.0,29.71,South,177,0.0,0.0,93,0.00,,,0.01,0,weatherlink.com 1.10,2013-06-16 03:51:00,